FW5912 Weather Reports


time (UTC)temp
C
wind
direction
speed
KPH
gust
KPH
rain 1hr
cm
rain 24hr
cm
rain mn
cm
humidity
%
barometer
mb
20260506193055 25 102 17.7 24.1 0.00 0.00 0.00 91 1011.4
20260506191554 25 122 14.5 24.1 0.00 0.00 0.00 91 1011.4
20260506190057 25 107 16.1 22.5 0.00 0.00 0.00 91 1011.7
20260506184609 25 126 8.0 19.3 0.00 0.00 0.00 91 1011.8
20260506183102 25 113 9.7 17.7 0.00 0.00 0.00 91 1011.8
20260506181553 25 94 11.3 17.7 0.00 0.00 0.00 92 1012.0
20260506180056 25 89 11.3 19.3 0.00 0.00 0.00 92 1012.1
20260506174601 25 117 12.9 17.7 0.00 0.00 0.00 91 1012.3
20260506173109 25 115 9.7 14.5 0.00 0.00 0.00 91 1012.4
20260506171610 25 101 11.3 17.7 0.00 0.00 0.00 91 1012.3
20260506170116 25 98 4.8 14.5 0.00 0.00 0.00 91 1012.3
20260506164609 25 129 6.4 12.9 0.00 0.00 0.00 92 1012.3
20260506161600 25 111 9.7 19.3 0.00 0.00 0.00 92 1012.4
20260506160119 25 113 4.8 14.5 0.00 0.00 0.00 92 1011.9
20260506154607 25 84 9.7 19.3 0.00 0.00 0.00 92 1012.1
20260506153057 25 106 14.5 22.5 0.00 0.00 0.00 92 1011.6
20260506151558 25 110 12.9 19.3 0.00 0.00 0.00 92 1011.3
20260506150053 25 125 14.5 20.9 0.00 0.00 0.00 93 1011.3
20260506144607 25 136 16.1 24.1 0.00 0.00 0.00 93 1011.4
20260506143055 25 109 11.3 22.5 0.00 0.00 0.00 93 1011.3
20260506141555 25 105 8.0 19.3 0.00 0.00 0.00 93 1011.3
20260506140053 25 96 12.9 19.3 0.00 0.00 0.00 93 1011.2
20260506134557 25 113 8.0 16.1 0.00 0.00 0.00 93 1011.3
20260506133057 24 96 8.0 12.9 0.00 0.00 0.00 93 1011.4
20260506131556 24 107 4.8 16.1 0.00 0.00 0.00 93 1011.4
20260506130100 24 118 11.3 17.7 0.00 0.00 0.00 93 1011.4
20260506124553 24 123 12.9 19.3 0.00 0.00 0.00 93 1011.3
20260506123056 24 115 6.4 16.1 0.00 0.00 0.00 93 1011.3
20260506121557 24 93 9.7 17.7 0.00 0.00 0.00 93 1011.1
20260506120055 24 129 9.7 16.1 0.00 0.00 0.00 93 1010.9
20260506114556 24 116 4.8 12.9 0.00 0.00 0.00 93 1010.5
20260506113053 24 104 4.8 17.7 0.00 0.00 0.00 93 1010.5
20260506111554 24 118 9.7 17.7 0.00 0.00 0.00 93 1010.7
20260506110054 24 121 9.7 16.1 0.00 0.00 0.00 93 1010.4
20260506104556 24 119 11.3 17.7 0.00 0.00 0.00 93 1010.4
20260506103119 24 131 11.3 16.1 0.00 0.00 0.00 93 1010.3
20260506101556 24 82 8.0 16.1 0.00 0.00 0.00 93 1010.1
20260506100056 24 140 6.4 16.1 0.00 0.00 0.00 93 1010.1
20260506094605 24 146 6.4 16.1 0.00 0.00 0.00 93 1010.0
20260506093103 24 133 6.4 14.5 0.00 0.00 0.00 93 1010.1
20260506091604 24 117 8.0 19.3 0.00 0.00 0.00 93 1010.2
20260506090100 24 119 11.3 14.5 0.00 0.00 0.00 92 1010.3
20260506084613 24 115 11.3 16.1 0.00 0.00 0.00 92 1010.5
20260506083100 24 143 8.0 14.5 0.00 0.00 0.00 92 1010.5
20260506081559 24 145 4.8 12.9 0.00 0.00 0.00 92 1010.6
20260506073103 24 138 6.4 14.5 0.00 0.00 0.00 92 1011.2
20260506071604 24 155 9.7 17.7 0.00 0.00 0.00 92 1011.1
20260506061603 24 150 12.9 20.9 0.00 0.00 0.00 92 1011.1
20260506050110 24 150 16.1 27.4 0.00 0.00 0.00 91 1010.9
20260506044554 24 179 22.5 32.2 0.00 0.00 0.00 91 1011.1
20260506043101 24 123 22.5 30.6 0.00 0.00 0.00 91 1011.0
20260506041554 24 130 20.9 33.8 0.00 0.00 0.00 91 1011.1
20260506040104 24 163 22.5 32.2 0.00 0.00 0.00 91 1011.0
20260506034558 24 144 17.7 30.6 0.00 0.00 0.00 91 1011.1
20260506033053 24 117 19.3 30.6 0.00 0.00 0.00 91 1011.0
20260506031553 24 132 19.3 29.0 0.00 0.00 0.00 91 1011.1
20260506030056 24 215 17.7 29.0 0.00 0.00 0.00 91 1010.9
20260506024559 24 143 20.9 30.6 0.00 0.00 0.00 91 1010.7
20260506023056 24 126 20.9 32.2 0.00 0.00 0.00 91 1010.5
20260506021603 24 140 20.9 33.8 0.00 0.00 0.00 91 1010.3
20260506020059 24 157 17.7 25.7 0.00 0.00 0.00 91 1010.1
20260506014554 24 149 19.3 29.0 0.00 0.00 0.00 91 1009.9
20260506013102 25 170 17.7 29.0 0.00 0.00 0.00 91 1009.6
20260506011603 25 144 17.7 25.7 0.00 0.00 0.00 91 1009.6
20260506010055 25 155 20.9 29.0 0.00 0.00 0.00 90 1009.5
20260506004552 25 144 16.1 25.7 0.00 0.00 0.00 90 1009.4
20260506003053 25 145 17.7 27.4 0.00 0.00 0.00 90 1009.5
20260506001554 25 170 19.3 27.4 0.00 0.00 0.00 89 1009.4
20260506000055 25 162 17.7 25.7 0.00 0.00 0.00 89 1009.4
20260505234606 25 142 17.7 30.6 0.00 0.00 0.00 88 1009.4
20260505233053 25 159 17.7 30.6 0.00 0.00 0.00 88 1009.3
20260505231606 25 157 19.3 27.4 0.00 0.00 0.00 87 1009.5
20260505230055 25 132 19.3 29.0 0.00 0.00 0.00 87 1009.6
20260505224556 26 151 16.1 27.4 0.00 0.00 0.00 87 1009.9
20260505223104 26 150 16.1 25.7 0.00 0.00 0.00 86 1009.8
20260505221559 26 144 17.7 24.1 0.00 0.00 0.00 85 1009.9
20260505220055 26 162 12.9 24.1 0.00 0.00 0.00 86 1010.0
20260505214613 26 159 14.5 24.1 0.00 0.00 0.00 85 1010.1
20260505213102 26 191 16.1 25.7 0.00 0.00 0.00 85 1010.1
20260505211606 26 213 12.9 25.7 0.00 0.00 0.00 84 1010.4
20260505210057 26 183 11.3 22.5 0.00 0.00 0.00 84 1010.6
20260505204553 26 202 12.9 24.1 0.00 0.00 0.00 85 1010.8
20260505203054 26 135 11.3 22.5 0.00 0.00 0.00 84 1011.0
20260505201558 26 168 12.9 27.4 0.00 0.00 0.00 84 1011.0
20260505194556 26 157 16.1 25.7 0.00 0.00 0.00 84 1011.0